Terminal Aerodrome Forecast
Issued by NWS

Home | Current Version | Previous Version | Text Only | Print | Product List | Glossary On
Versions: 1 2 3 4 5 6 7 8 9 10 11 12 13 14 15 16 17 18 19 20 21 22 23 24 25 26 27
000
FTUS45 KBOI 211128
TAFTWF
TAF
KTWF 211128Z 2112/2212 19008KT P6SM BKN200
     FM211700 09009KT P6SM VCSH SCT100 OVC200
      TEMPO 2119/2122 -SHRA BKN090
     FM212200 10009KT P6SM -SHRA SCT050 OVC090
     FM220600 13006KT P6SM VCSH OVC090=

USA.gov is the U.S. government's official web portal to all federal, state and local government web resources and services.